Find Starlink 3637

NORAD ID: 51799 Int'l Des: 2022-017 Owner: SPXS Country: US Constellation: starlink operational
LEOCIRCULAR

当前视图

正在加载3D地球...

About Starlink 3637

Starlink 3637 (NORAD 51799) is a starlink constellation satellite (v1.5) launched Feb 25, 2022 by SPXS of US. It operates in LEO, CIRCULAR orbit with a mass of 297.00 kg.

关于 Starlink 3637

正在加载描述...

即将过境

Passes for default location (London). Set your location on the main map for personalized predictions.

高度历史

Loading altitude history...

两行轨道根数

1 51799U 22017AH 26171.41668980 .00005101 00000-0 27127-3 0 9991
2 51799 53.1595 247.6513 0000844 24.7897 11.8206 15.16894411 5825
Epoch: Jun 20, 2026 • Age: 24 hours

当前状态

高度 517.3 km
速度 7.61 km/s
星下点 35.57°N, 140.71°W
发射日期 Feb 25, 2022
运行时间 4.3 years
类型 internet

技术详情

分类 Payload
质量 297.00 kg
干质量 275.00 kg
总质量 297.00 kg
长度 0.20 m
直径 2.80 m
跨度 9.00 m
形状 Box + pan
制造商 SPXS
平台类型 Starlink
阶段状态 In Orbit
所有者/国家 SPXS/US

Most Searched